Location: Unspecified
(0.0000°N, 0.0000°E)
Time: 06:17:51
(UTC+00:00)

Vanguard 3 - All Passes

Search period start: 31 October 2014 00:00
Search period end: 10 November 2014 00:00
Orbit: 508 x 3278 km, 33.3° (Epoch: 29 October)

Date Brightness Start Highest point End Pass type
(mag) Time Alt. Az. Time Alt. Az. Time Alt. Az.
31 Oct - 05:29:15 10° NW 05:32:52 89° NE 05:37:16 10° SE daylight
31 Oct - 07:43:46 10° SW 07:45:41 12° SSW 07:47:52 10° S daylight
31 Oct - 12:16:05 10° S 12:21:21 13° SSE 12:27:28 10° SE daylight
31 Oct - 14:25:59 10° SSW 14:40:36 35° SSE 14:57:49 10° E daylight
31 Oct - 16:39:19 10° SW 16:58:48 80° SE 17:16:59 10° ENE daylight
31 Oct - 18:57:27 10° WSW 19:16:08 47° NW 19:30:13 10° NNE visible
31 Oct - 21:25:16 10° WNW 21:33:03 15° NNW 21:39:20 10° N visible
01 Nov - 04:18:07 10° NNW 04:21:24 27° NE 04:24:37 10° E visible
01 Nov - 06:30:09 10° WSW 06:33:07 21° SSW 06:36:49 10° SSE daylight
01 Nov - 13:14:18 10° SSW 13:25:07 23° SSE 13:38:43 10° ESE daylight
01 Nov - 15:25:55 10° SW 15:43:18 58° SE 16:02:20 10° ENE daylight
01 Nov - 17:41:18 10° WSW 18:01:06 68° NW 18:17:54 10° NE visible
01 Nov - 20:03:50 10° W 20:18:19 27° NW 20:29:17 10° NNE visible
02 Nov - 03:08:13 10° N 03:09:25 11° NNE 03:10:33 10° NE visible
02 Nov - 05:17:43 10° WNW 05:21:17 52° SW 05:25:17 10° SE visible
02 Nov - 12:04:08 10° S 12:09:48 13° SSE 12:16:31 10° SE daylight
02 Nov - 14:13:29 10° SSW 14:27:58 40° SE 14:45:55 10° E daylight
02 Nov - 16:26:43 10° SW 16:45:43 89° SE 17:04:35 10° NE daylight
02 Nov - 18:45:16 10° W 19:03:22 41° NW 19:17:49 10° NNE visible
02 Nov - 21:14:21 10° NW 21:21:18 14° NNW 21:27:07 10° N visible
03 Nov - 04:05:56 10° NW 04:09:49 45° NE 04:13:21 10° ESE visible
03 Nov - 06:19:56 10° SW 06:21:40 12° SSW 06:23:33 10° S daylight
03 Nov - 13:01:59 10° SSW 13:12:55 26° SSE 13:27:13 10° E daylight
03 Nov - 15:13:23 10° SW 15:30:18 66° SE 15:49:59 10° ENE daylight
03 Nov - 17:28:54 10° WSW 17:48:05 60° NW 18:05:24 10° NE visible
03 Nov - 19:52:18 10° WNW 20:06:05 24° NNW 20:16:58 10° NNE visible
04 Nov - 02:54:35 10° NNW 02:57:57 18° NNE 03:00:44 10° ENE visible
04 Nov - 05:06:23 10° W 05:09:42 30° SW 05:13:09 10° SSE visible
04 Nov - 11:51:57 10° S 11:58:05 15° SSE 12:05:37 10° ESE daylight
04 Nov - 14:01:04 10° SSW 14:15:13 46° SE 14:33:46 10° ENE daylight
04 Nov - 16:14:17 10° WSW 16:32:36 82° NW 16:52:00 10° NE daylight
04 Nov - 18:33:18 10° W 18:50:42 37° NNW 19:05:19 10° NNE visible
04 Nov - 21:03:26 10° NW 21:09:42 13° NNW 21:15:05 10° N visible
05 Nov - 01:44:10 10° N 01:45:21 11° NNE 01:46:27 10° NNE night (unlit)
05 Nov - 03:53:53 10° NW 03:58:14 80° NE 04:01:52 10° ESE visible
05 Nov - 12:49:41 10° SSW 13:00:35 29° SE 13:15:30 10° E daylight
05 Nov - 15:00:59 10° SW 15:17:16 74° SE 15:37:25 10° ENE daylight
05 Nov - 17:16:44 10° WSW 17:35:08 53° NW 17:52:45 10° NE daylight
05 Nov - 19:40:59 10° WNW 19:54:00 21° NNW 20:04:40 10° NNE visible
06 Nov - 02:41:45 10° NNW 02:46:28 30° NNE 02:49:58 10° E visible
06 Nov - 04:55:19 10° W 04:58:05 19° SW 05:00:47 10° SSE visible
06 Nov - 11:39:39 10° S 11:46:14 16° SSE 11:54:36 10° ESE daylight
06 Nov - 13:48:44 10° SW 14:02:24 52° SE 14:21:23 10° ENE daylight
06 Nov - 16:02:01 10° WSW 16:19:33 73° NW 16:39:15 10° NE daylight
06 Nov - 18:21:36 10° W 18:38:10 32° NNW 18:52:46 10° NNE visible
06 Nov - 20:52:16 10° NW 20:58:13 12° NNW 21:03:24 10° N visible
07 Nov - 01:29:41 10° NNW 01:34:00 17° NNE 01:37:17 10° ENE night (unlit)
07 Nov - 03:41:59 10° WNW 03:46:35 60° SW 03:50:13 10° SE visible
07 Nov - 12:37:25 10° SSW 12:48:07 33° SE 13:03:31 10° E daylight
07 Nov - 14:48:43 10° SW 15:04:15 84° SE 15:24:39 10° NE daylight
07 Nov - 17:04:46 10° W 17:22:19 46° NNW 17:39:59 10° NE daylight
07 Nov - 19:29:49 10° WNW 19:42:04 19° NNW 19:52:25 10° NNE visible
08 Nov - 00:17:28 10° N 00:20:47 12° NNE 00:23:33 10° NE night (unlit)
08 Nov - 02:29:08 10° NW 02:34:57 48° NNE 02:38:52 10° ESE visible
08 Nov - 04:44:49 10° WSW 04:46:24 12° SW 04:47:55 10° S visible
08 Nov - 11:27:21 10° S 11:34:14 18° SE 11:43:23 10° ESE daylight
08 Nov - 13:36:30 10° SW 13:49:34 59° SE 14:08:46 10° ENE daylight
08 Nov - 15:49:57 10° WSW 16:06:35 64° NW 16:26:20 10° NE daylight
08 Nov - 18:10:08 10° W 18:25:48 29° NNW 18:40:10 10° NNE visible
08 Nov - 20:40:40 10° NW 20:46:50 13° NNW 20:52:14 10° N visible
08 Nov - 23:04:27 10° N 23:06:42 11° N 23:08:45 10° NNE night (unlit)
09 Nov - 01:16:19 10° NNW 01:22:36 26° NNE 01:26:49 10° E night (unlit)
09 Nov - 03:30:11 10° WNW 03:34:52 38° SW 03:38:24 10° SSE visible
09 Nov - 12:25:13 10° SSW 12:35:35 37° SE 12:51:19 10° E daylight
09 Nov - 14:36:36 10° SW 14:51:18 86° NW 15:11:43 10° NE daylight
09 Nov - 16:53:03 10° W 17:09:38 40° NNW 17:27:07 10° NNE daylight
09 Nov - 19:18:44 10° NW 19:30:18 18° NNW 19:40:19 10° NNE visible
09 Nov - 21:48:18 10° NNW 21:51:38 11° N 21:54:37 10° NNE visible
